Location: Unspecified
(0.0000°N, 0.0000°E)
Time: 03:09:37
(UTC+00:00)

GONETS M03 - Visible Passes

Search period start: 16 July 2018 00:00
Search period end: 26 July 2018 00:00
Orbit: 1474 x 1498 km, 82.5° (Epoch: 15 July)

Date Brightness Start Highest point End Pass type
(mag) Time Alt. Az. Time Alt. Az. Time Alt. Az.
16 Jul ? 21:01:39 10° N 21:05:52 33° NNE 21:05:52 33° NNE visible
17 Jul ? 20:11:38 10° NNE 20:15:13 22° NE 20:15:13 22° NE visible
17 Jul ? 22:07:39 10° NNW 22:11:00 23° NW 22:11:00 23° NW visible
18 Jul ? 21:15:11 10° N 21:20:22 41° NNW 21:20:22 41° NNW visible
19 Jul ? 20:24:12 10° NNE 20:29:47 39° NE 20:29:47 39° NE visible
19 Jul ? 22:22:59 10° NW 22:25:34 16° WNW 22:25:34 16° WNW visible
20 Jul ? 19:35:06 10° NE 19:39:15 20° ENE 19:39:15 20° ENE visible
20 Jul ? 21:29:12 10° NNW 21:35:02 39° NW 21:35:02 39° NW visible
21 Jul ? 20:37:23 10° N 20:44:32 64° NNE 20:44:32 64° NNE visible
22 Jul ? 19:47:04 10° NNE 19:54:07 35° ENE 19:54:07 35° ENE visible
22 Jul ? 21:43:52 10° NW 21:49:55 28° W 21:49:55 28° W visible
23 Jul ? 18:59:32 10° ENE 19:03:26 14° E 19:03:44 14° E visible
23 Jul ? 20:51:04 10° NNW 20:59:32 66° W 20:59:32 66° W visible
24 Jul ? 19:59:50 10° N 20:08:21 58° E 20:09:14 56° ESE visible
24 Jul ? 21:59:37 10° WNW 22:04:35 16° W 22:05:03 16° W visible
25 Jul ? 19:10:18 10° NE 19:17:00 25° E 19:19:02 23° ESE visible
25 Jul ? 21:05:15 10° NNW 21:13:15 41° W 21:14:50 38° WSW visible
